Other Surface Observations
Issued by NWS Charleston, SC

Current Version | Previous Version | Text Only | Print | Product List | Glossary On
Versions: 1 2 3 4 5 6 7 8 9 10 11 12 13 14 15 16 17 18 19 20 21 22 23 24 25 26 27 28 29 30 31 32 33 34 35 36 37 38 39 40 41 42 43 44 45 46 47 48 49 50
000
SXUS52 KCHS 231027
OSOCHS

MARINE OBSERVATIONS
NATIONAL WEATHER SERVICE CHARLESTON SC
600 AM EDT WED AUG 23 2017

...DOWNTOWN CHARLESTON AND HARBOR...

CITY           SKY/WX    TMP DP  RH WIND       PRES   REMARKS
WATERFRONT PRK   N/A     80  77  90 VRB2      29.78S

...LAKE MOULTRIE...

CITY           SKY/WX    TMP DP  RH WIND       PRES   REMARKS
PINOPOLIS        N/A     79  77  94 SW7       29.87S

...LAKE AND SUPPLEMENTAL COASTAL OBSERVATIONS...

STATION/POSITION TIME  TEMP    WIND        PRES    WAVE   SWELL
                       AIR SEA DIR/SP/G            HT/PER HT/PER/DIR
                 (UTC) (F)     (DEG/KT/KT) (MB)    (FT/S) (FT/S/D)
FORT PULASKI     1000   79 86  240/  5/  6 1014.9
SAPELO ISLAND    1000   79     230/  9     1015.0
WINYAH BAY       0945   78     260/  6     1014.0S
LAKE MURRAY      1020   80     250/ 10/ 13 1012.5
ACE BASIN NERRS  0945   78     240/  2     1014.0S


...C-MAN AND BUOY OBSERVATIONS...

STATION/POSITION TIME  TEMP    WIND        PRES    WAVE   SWELL
                       AIR SEA DIR/SP/G            HT/PER HT/PER/DIR
                 (UTC) (F)     (DEG/KT/KT) (MB)    (FT/S) (FT/S/D)
BUOY 41004       1010   83 84  230/ 12/ 16 1013.8
BUOY 41008       0950   84 85  200/ 14/ 16 1014.1F   3/10   3/ 70/10
FOLLY BEACH CMAN 1000   80     270/  3/  5 1014.8R
CAPERS NS BUOY   1008   81 85  260/ 10/ 16 1013.9R
FRIPP NS BUOY    1008   83     260/ 14/ 17 1013.9R
5E ST. MARYS GA  1000      84                N/A     3/ 9


STATION/POSITION TIME  TEMP    WIND        PRES    WAVE   SWELL
                       AIR SEA DIR/SP/G            HT/PER HT/PER/DIR
                 (UTC) (F)     (DEG/KT/KT) (MB)    (FT/S) (FT/S/D)
FRYING PAN BUOY  1010   83 84  230/ 16/ 17 1013.5
BUOY 41025       0950   83 85  250/ 17/ 19 1012.6F   4/10   3/140/10
CAPE LOOKOUT NC  1000   82     230/ 10/ 12 1012.8R
BUOY 41002       0950   82 84  240/  4/  6 1015.0R   3/ 9   3/110/ 9
BUOY 41010       1010   84 85  150/  8/ 10 1014.5
ST AUGUSTINE FL  1000   77 82  280/  2/  3 1014.9F

$$




USA.gov is the U.S. government's official web portal to all federal, state and local government web resources and services.